contact:dominique.lefevre@mio.osupytheas.fr, maurice.libes@osupytheas.fr, didier.mallarino@osupytheas.fr
Project:EMSO http://www.emso-fr.org/EMSO-France
Depth: 2436.0 m
Title:EMSO Ligure Ouest : Data MII capteur AQUADOPP
Date,Latitude,Longitude,X_East,Y_North,Z_Up,Amplitude_X,Amplitude_Y,Amplitude_Z,Batterie,SoundSpeed,Heading,Pitch,Roll,Pressure,TIS,Speed,Direction
, degrees North, degrees East, m.s-1, m.s-1,m.s-1, 1, 1, 1, Volt, m.s-1, degree, degree, degree, dbar, degree_C, m.s-1, degree
2022-02-18T00:01:03,42.805,6.029,0.007,0.012,0.008,104.0,104.0,102.0,13.4,1505.2,328.1,-0.8,1.8,2470.654,13.28,0.013,30.3
2022-02-18T00:04:03,42.805,6.029,0.025,0.001,-0.005,104.0,104.0,101.0,13.4,1505.2,325.4,-0.8,1.8,2470.646,13.28,0.025,87.7
2022-02-18T00:07:03,42.805,6.029,0.013,-0.007,0.002,104.0,105.0,101.0,13.4,1505.2,329.2,-0.7,1.8,2470.658,13.28,0.014,118.3
2022-02-18T00:10:03,42.805,6.029,0.036,-0.01,0.007,103.0,103.0,102.0,13.4,1505.2,323.5,-0.8,1.8,2470.668,13.28,0.037,105.5
2022-02-18T00:13:03,42.805,6.029,-0.006,-0.007,0.022,104.0,104.0,102.0,13.4,1505.2,330.0,-0.8,1.8,2470.651,13.28,0.009,220.6
2022-02-18T00:16:03,42.805,6.029,0.011,-0.001,0.009,104.0,103.0,102.0,13.4,1505.2,325.2,-0.7,1.8,2470.625,13.28,0.011,95.2
2022-02-18T00:19:03,42.805,6.029,0.035,0.015,0.008,104.0,104.0,101.0,13.4,1505.2,329.2,-0.7,1.8,2470.687,13.28,0.038,66.8
2022-02-18T00:22:03,42.805,6.029,0.016,-0.01,0.005,103.0,105.0,102.0,13.4,1505.2,323.8,-0.7,1.8,2470.675,13.28,0.018,122.0
2022-02-18T00:25:03,42.805,6.029,0.014,-0.03,0.015,104.0,103.0,102.0,13.3,1505.2,329.6,-0.7,1.8,2470.664,13.28,0.033,155.0
2022-02-18T00:28:03,42.805,6.029,0.021,0.001,-0.007,103.0,103.0,102.0,13.4,1505.2,329.7,-0.8,1.8,2470.66,13.28,0.021,87.3
2022-02-18T00:31:03,42.805,6.029,0.012,0.007,0.02,103.0,103.0,102.0,13.3,1505.2,326.0,-0.7,1.8,2470.641,13.28,0.013,59.7
2022-02-18T00:34:03,42.805,6.029,0.019,-0.003,-0.011,102.0,104.0,102.0,13.4,1505.2,327.5,-0.8,1.8,2470.601,13.28,0.019,99.0
2022-02-18T00:37:03,42.805,6.029,0.029,-0.023,-0.017,103.0,104.0,100.0,13.4,1505.2,326.9,-0.8,1.8,2470.641,13.28,0.037,128.4
2022-02-18T00:40:03,42.805,6.029,0.036,0.002,0.0,102.0,103.0,102.0,13.4,1505.2,326.1,-0.8,1.8,2470.628,13.28,0.036,86.8
2022-02-18T00:43:03,42.805,6.029,0.026,-0.003,0.01,103.0,105.0,101.0,13.4,1505.2,326.3,-0.7,1.8,2470.624,13.28,0.026,96.6
2022-02-18T00:46:03,42.805,6.029,0.038,-0.005,0.016,103.0,103.0,102.0,13.3,1505.2,326.3,-0.8,1.8,2470.611,13.28,0.038,97.5
2022-02-18T00:49:03,42.805,6.029,0.008,0.014,-0.004,104.0,104.0,101.0,13.4,1505.2,324.9,-0.8,1.8,2470.61,13.28,0.016,29.7
2022-02-18T00:52:03,42.805,6.029,0.017,0.006,-0.004,103.0,102.0,102.0,13.3,1505.2,329.0,-0.8,1.9,2470.64,13.28,0.018,70.6
2022-02-18T00:55:03,42.805,6.029,0.022,-0.027,0.015,103.0,102.0,101.0,13.3,1505.2,328.4,-0.8,1.9,2470.643,13.28,0.034,140.8
2022-02-18T00:58:03,42.805,6.029,0.005,-0.012,0.005,104.0,102.0,101.0,13.4,1505.2,323.5,-0.8,1.8,2470.654,13.28,0.013,157.4
2022-02-18T01:04:03,42.805,6.029,0.005,0.0,-0.003,105.0,105.0,103.0,13.4,1505.2,326.4,-0.8,1.8,2470.656,13.28,0.005,90.0
2022-02-18T01:07:03,42.805,6.029,0.013,0.025,-0.023,105.0,104.0,103.0,13.4,1505.2,330.8,-0.8,1.8,2470.661,13.28,0.028,27.5
2022-02-18T01:10:03,42.805,6.029,0.007,0.0,-0.02,104.0,103.0,102.0,13.4,1505.2,331.3,-0.8,1.8,2470.61,13.28,0.007,90.0
2022-02-18T01:13:03,42.805,6.029,0.004,0.002,-0.007,103.0,105.0,101.0,13.4,1505.2,331.1,-0.7,1.8,2470.642,13.28,0.004,63.4
2022-02-18T01:16:03,42.805,6.029,0.022,0.007,0.003,104.0,103.0,102.0,13.3,1505.2,326.5,-0.7,1.8,2470.63,13.28,0.023,72.4
2022-02-18T01:19:03,42.805,6.029,0.003,-0.014,-0.018,104.0,103.0,102.0,13.4,1505.2,327.5,-0.7,1.8,2470.647,13.28,0.014,167.9
2022-02-18T01:22:03,42.805,6.029,0.003,0.0,-0.013,103.0,103.0,102.0,13.4,1505.2,324.1,-0.8,1.8,2470.646,13.28,0.003,90.0
2022-02-18T01:25:03,42.805,6.029,0.022,0.007,0.005,104.0,103.0,102.0,13.4,1505.2,328.3,-0.7,1.8,2470.649,13.28,0.023,72.4
2022-02-18T01:28:03,42.805,6.029,0.025,-0.011,0.019,104.0,104.0,101.0,13.3,1505.2,328.7,-0.8,1.8,2470.634,13.28,0.027,113.7
2022-02-18T01:31:03,42.805,6.029,0.028,-0.004,-0.02,104.0,105.0,102.0,13.4,1505.2,332.2,-0.7,1.8,2470.629,13.28,0.028,98.1
2022-02-18T01:34:03,42.805,6.029,0.02,-0.006,-0.002,103.0,105.0,102.0,13.4,1505.2,323.6,-0.7,1.9,2470.633,13.28,0.02,106.7
2022-02-18T01:37:03,42.805,6.029,0.01,0.001,-0.004,104.0,104.0,102.0,13.4,1505.2,325.5,-0.8,1.9,2470.623,13.28,0.01,84.3
2022-02-18T01:40:03,42.805,6.029,0.032,-0.007,-0.003,105.0,104.0,102.0,13.4,1505.2,326.2,-0.8,1.8,2470.582,13.28,0.032,102.3
2022-02-18T01:43:03,42.805,6.029,0.0,-0.012,0.002,104.0,104.0,102.0,13.4,1505.2,325.3,-0.8,1.8,2470.632,13.28,0.012,180.0
2022-02-18T01:46:03,42.805,6.029,0.019,-0.008,0.004,103.0,105.0,101.0,13.4,1505.2,328.4,-0.7,1.8,2470.656,13.28,0.02,112.8
2022-02-18T01:49:03,42.805,6.029,-0.007,-0.014,0.007,104.0,104.0,102.0,13.4,1505.2,329.7,-0.8,1.8,2470.627,13.28,0.015,206.6
2022-02-18T01:52:03,42.805,6.029,0.014,0.0,0.018,104.0,104.0,102.0,13.3,1505.2,323.6,-0.7,1.8,2470.574,13.28,0.014,90.0
2022-02-18T01:55:03,42.805,6.029,0.026,0.01,0.011,103.0,104.0,102.0,13.4,1505.2,326.2,-0.8,1.8,2470.615,13.28,0.027,69.0
2022-02-18T01:58:03,42.805,6.029,0.002,-0.011,-0.023,104.0,104.0,103.0,13.4,1505.2,328.2,-0.7,1.8,2470.606,13.28,0.011,169.7
2022-02-18T02:04:03,42.805,6.029,0.025,0.003,0.038,104.0,103.0,104.0,13.4,1505.2,323.6,-0.8,1.8,2470.627,13.28,0.025,83.2
2022-02-18T02:07:03,42.805,6.029,0.025,0.005,0.011,104.0,105.0,102.0,13.3,1505.2,329.3,-0.8,1.8,2470.627,13.28,0.025,78.7
2022-02-18T02:10:03,42.805,6.029,0.024,-0.01,-0.005,104.0,105.0,103.0,13.4,1505.2,323.5,-0.7,1.8,2470.584,13.28,0.026,112.6
2022-02-18T02:13:03,42.805,6.029,0.015,0.01,-0.005,106.0,104.0,102.0,13.4,1505.2,329.5,-0.8,1.8,2470.632,13.28,0.018,56.3
2022-02-18T02:16:03,42.805,6.029,0.018,0.012,0.003,104.0,106.0,103.0,13.3,1505.2,325.6,-0.8,1.8,2470.617,13.28,0.021,56.3
2022-02-18T02:19:03,42.805,6.029,0.016,-0.011,0.006,104.0,105.0,102.0,13.4,1505.2,326.1,-0.8,1.9,2470.623,13.28,0.019,124.5
2022-02-18T02:22:03,42.805,6.029,0.004,0.0,-0.007,104.0,105.0,103.0,13.4,1505.2,326.5,-0.7,1.8,2470.602,13.28,0.004,90.0
2022-02-18T02:25:03,42.805,6.029,0.014,-0.011,0.0,105.0,104.0,102.0,13.4,1505.2,326.9,-0.7,1.8,2470.629,13.28,0.017,128.2
2022-02-18T02:28:03,42.805,6.029,0.035,-0.005,0.004,104.0,104.0,102.0,13.3,1505.2,325.3,-0.8,1.8,2470.624,13.28,0.035,98.1
2022-02-18T02:31:03,42.805,6.029,0.02,0.002,-0.009,104.0,104.0,103.0,13.3,1505.2,326.9,-0.8,1.8,2470.585,13.28,0.02,84.3
2022-02-18T02:34:03,42.805,6.029,0.001,0.02,-0.016,105.0,104.0,102.0,13.4,1505.2,328.8,-0.8,1.8,2470.615,13.28,0.02,2.9
2022-02-18T02:37:03,42.805,6.029,0.005,0.002,-0.007,105.0,104.0,102.0,13.4,1505.2,328.2,-0.7,1.8,2470.619,13.28,0.005,68.2
2022-02-18T02:40:03,42.805,6.029,0.044,-0.002,-0.021,106.0,105.0,102.0,13.3,1505.2,326.6,-0.8,1.8,2470.627,13.28,0.044,92.6
2022-02-18T02:43:03,42.805,6.029,0.019,0.007,-0.013,104.0,105.0,102.0,13.3,1505.2,331.0,-0.7,1.8,2470.609,13.28,0.02,69.8
2022-02-18T02:46:03,42.805,6.029,0.013,-0.01,0.016,104.0,105.0,103.0,13.4,1505.2,330.5,-0.8,1.8,2470.603,13.28,0.016,127.6
2022-02-18T02:49:03,42.805,6.029,-0.01,0.005,0.004,103.0,104.0,101.0,13.4,1505.2,331.3,-0.7,1.8,2470.627,13.28,0.011,296.6
2022-02-18T02:52:03,42.805,6.029,-0.01,0.011,0.014,103.0,105.0,102.0,13.4,1505.2,330.7,-0.7,1.8,2470.626,13.28,0.014,317.7
2022-02-18T02:55:03,42.805,6.029,0.032,-0.004,0.035,104.0,104.0,102.0,13.4,1505.2,326.6,-0.8,1.8,2470.626,13.28,0.032,97.1
2022-02-18T02:58:03,42.805,6.029,0.03,0.0,0.016,105.0,104.0,103.0,13.4,1505.2,329.7,-0.8,1.8,2470.607,13.28,0.03,90.0
2022-02-18T03:04:03,42.805,6.029,0.007,-0.004,0.014,104.0,106.0,103.0,13.4,1505.2,326.3,-0.7,1.8,2470.673,13.28,0.008,119.7
2022-02-18T03:07:03,42.805,6.029,0.037,0.0,0.008,104.0,105.0,102.0,13.3,1505.2,324.2,-0.8,1.8,2470.672,13.28,0.037,90.0
2022-02-18T03:10:03,42.805,6.029,0.017,0.0,-0.018,105.0,104.0,102.0,13.4,1505.2,330.1,-0.7,1.8,2470.606,13.28,0.017,90.0
2022-02-18T03:13:03,42.805,6.029,-0.011,-0.004,-0.025,103.0,105.0,103.0,13.3,1505.2,326.0,-0.7,1.8,2470.629,13.28,0.011,250.0
2022-02-18T03:16:03,42.805,6.029,0.014,0.002,0.009,105.0,104.0,102.0,13.4,1505.2,326.4,-0.7,1.8,2470.627,13.28,0.014,81.9
2022-02-18T03:19:03,42.805,6.029,0.016,0.005,0.0,105.0,108.0,101.0,13.4,1505.2,328.9,-0.7,1.8,2470.627,13.28,0.016,72.6
2022-02-18T03:22:03,42.805,6.029,0.025,0.009,-0.003,104.0,104.0,102.0,13.3,1505.2,327.8,-0.8,1.8,2470.606,13.28,0.026,70.2
2022-02-18T03:25:03,42.805,6.029,0.002,0.012,0.004,103.0,105.0,101.0,13.3,1505.2,325.3,-0.7,1.8,2470.632,13.28,0.012,9.5
2022-02-18T03:28:03,42.805,6.029,0.002,0.013,0.02,103.0,103.0,102.0,13.4,1505.2,323.9,-0.8,1.8,2470.647,13.29,0.013,8.7
2022-02-18T03:31:03,42.805,6.029,0.011,-0.001,-0.002,105.0,103.0,103.0,13.4,1505.2,326.6,-0.8,1.8,2470.628,13.29,0.011,95.2
2022-02-18T03:34:03,42.805,6.029,0.022,0.022,0.042,103.0,105.0,101.0,13.3,1505.2,327.9,-0.8,1.8,2470.659,13.29,0.031,45.0
2022-02-18T03:37:03,42.805,6.029,-0.013,0.001,-0.003,105.0,104.0,102.0,13.4,1505.2,329.0,-0.8,1.8,2470.609,13.29,0.013,274.4
2022-02-18T03:40:03,42.805,6.029,0.002,-0.015,0.01,104.0,104.0,102.0,13.4,1505.2,327.7,-0.8,1.8,2470.62,13.29,0.015,172.4
2022-02-18T03:43:03,42.805,6.029,0.002,0.004,-0.001,104.0,105.0,101.0,13.4,1505.2,326.9,-0.8,1.8,2470.633,13.28,0.004,26.6
2022-02-18T03:46:03,42.805,6.029,0.008,0.018,0.002,104.0,103.0,102.0,13.4,1505.2,329.1,-0.7,1.8,2470.63,13.28,0.019,24.0
2022-02-18T03:49:03,42.805,6.029,0.017,-0.01,-0.022,104.0,104.0,102.0,13.4,1505.2,323.7,-0.8,1.8,2470.613,13.29,0.019,120.5
2022-02-18T03:52:03,42.805,6.029,0.013,0.002,0.024,103.0,105.0,102.0,13.4,1505.2,329.0,-0.8,1.8,2470.666,13.28,0.013,81.3
2022-02-18T03:55:03,42.805,6.029,0.012,0.0,0.019,105.0,104.0,102.0,13.4,1505.2,327.0,-0.8,1.8,2470.597,13.29,0.012,90.0
2022-02-18T03:58:03,42.805,6.029,0.031,0.001,0.012,104.0,104.0,103.0,13.3,1505.2,323.9,-0.7,1.8,2470.619,13.29,0.031,88.2
2022-02-18T04:04:03,42.805,6.029,0.005,-0.012,-0.007,104.0,104.0,101.0,13.4,1505.2,329.6,-0.8,1.8,2470.662,13.28,0.013,157.4
2022-02-18T04:07:03,42.805,6.029,0.01,0.008,0.013,104.0,104.0,102.0,13.4,1505.2,326.6,-0.7,1.8,2470.668,13.28,0.012,51.3
2022-02-18T04:10:03,42.805,6.029,0.011,0.009,-0.015,105.0,104.0,102.0,13.4,1505.2,326.1,-0.8,1.8,2470.684,13.28,0.014,50.7
2022-02-18T04:13:03,42.805,6.029,0.009,0.006,0.002,105.0,103.0,102.0,13.3,1505.2,325.2,-0.8,1.8,2470.682,13.28,0.01,56.3
2022-02-18T04:16:03,42.805,6.029,0.004,0.013,-0.001,104.0,105.0,102.0,13.4,1505.2,324.7,-0.8,1.8,2470.699,13.28,0.013,17.1
2022-02-18T04:19:03,42.805,6.029,0.006,0.002,0.002,105.0,105.0,103.0,13.3,1505.2,323.5,-0.8,1.8,2470.666,13.28,0.006,71.6
2022-02-18T04:22:03,42.805,6.029,0.032,-0.006,0.017,105.0,106.0,103.0,13.4,1505.2,323.3,-0.8,1.8,2470.659,13.28,0.032,100.6
2022-02-18T04:25:03,42.805,6.029,0.013,0.0,0.016,105.0,105.0,102.0,13.4,1505.2,330.7,-0.8,1.8,2470.671,13.29,0.013,90.0
2022-02-18T04:28:03,42.805,6.029,0.011,0.0,0.019,105.0,104.0,102.0,13.4,1505.2,325.9,-0.7,1.8,2470.721,13.29,0.011,90.0
2022-02-18T04:31:03,42.805,6.029,0.008,0.012,-0.014,104.0,106.0,101.0,13.4,1505.2,325.3,-0.8,1.8,2470.709,13.28,0.014,33.7
2022-02-18T04:34:03,42.805,6.029,0.027,0.021,0.023,105.0,104.0,102.0,13.4,1505.2,326.0,-0.8,1.8,2470.671,13.28,0.034,52.1
2022-02-18T04:37:03,42.805,6.029,0.003,0.021,0.032,104.0,104.0,102.0,13.4,1505.2,329.6,-0.7,1.8,2470.702,13.28,0.021,8.1
2022-02-18T04:40:03,42.805,6.029,0.011,0.014,0.04,104.0,105.0,102.0,13.4,1505.2,325.3,-0.7,1.8,2470.667,13.28,0.017,38.2
2022-02-18T04:43:03,42.805,6.029,0.029,0.008,-0.002,104.0,105.0,102.0,13.4,1505.2,323.2,-0.8,1.8,2470.697,13.28,0.03,74.6
2022-02-18T04:46:03,42.805,6.029,0.01,-0.011,0.013,104.0,105.0,102.0,13.3,1505.2,332.2,-0.7,1.8,2470.688,13.28,0.014,137.7
2022-02-18T04:49:03,42.805,6.029,0.012,-0.006,0.008,105.0,105.0,103.0,13.4,1505.2,323.6,-0.8,1.9,2470.697,13.28,0.013,116.6
2022-02-18T04:52:03,42.805,6.029,0.018,0.009,0.003,105.0,105.0,103.0,13.3,1505.2,324.7,-0.7,1.8,2470.654,13.28,0.02,63.4
2022-02-18T04:55:03,42.805,6.029,0.012,0.012,0.015,106.0,105.0,103.0,13.3,1505.2,329.3,-0.7,1.8,2470.688,13.28,0.016,45.0
2022-02-18T04:58:03,42.805,6.029,0.023,0.015,0.004,104.0,106.0,103.0,13.4,1505.2,324.0,-0.8,1.9,2470.672,13.28,0.027,56.9
2022-02-18T05:04:03,42.805,6.029,0.005,0.008,0.011,105.0,105.0,102.0,13.4,1505.2,325.5,-0.8,1.8,2470.712,13.28,0.009,32.0
2022-02-18T05:07:03,42.805,6.029,0.008,0.005,0.011,103.0,106.0,103.0,13.4,1505.2,326.8,-0.7,1.8,2470.727,13.28,0.009,58.0
2022-02-18T05:10:03,42.805,6.029,0.005,0.031,-0.007,105.0,105.0,102.0,13.4,1505.2,326.2,-0.8,1.8,2470.715,13.28,0.031,9.2
2022-02-18T05:13:03,42.805,6.029,0.013,0.009,0.012,104.0,105.0,102.0,13.4,1505.2,329.0,-0.8,1.8,2470.702,13.28,0.015,55.3
2022-02-18T05:16:03,42.805,6.029,0.03,-0.004,-0.007,105.0,105.0,102.0,13.4,1505.2,324.4,-0.7,1.8,2470.719,13.28,0.03,97.6
2022-02-18T05:19:03,42.805,6.029,0.024,0.0,0.011,105.0,105.0,102.0,13.4,1505.2,328.0,-0.8,1.8,2470.733,13.28,0.024,90.0
2022-02-18T05:22:03,42.805,6.029,0.022,0.005,0.007,105.0,105.0,103.0,13.4,1505.2,327.3,-0.8,1.8,2470.75,13.28,0.022,77.2
2022-02-18T05:25:03,42.805,6.029,0.027,0.01,0.008,104.0,104.0,102.0,13.4,1505.2,331.0,-0.8,1.8,2470.748,13.28,0.028,69.7
2022-02-18T05:28:03,42.805,6.029,0.014,0.005,0.005,105.0,105.0,103.0,13.4,1505.2,329.4,-0.7,1.8,2470.743,13.28,0.014,70.4
2022-02-18T05:31:03,42.805,6.029,0.012,0.0,-0.006,105.0,105.0,103.0,13.3,1505.2,328.1,-0.7,1.9,2470.732,13.28,0.012,90.0
2022-02-18T05:34:03,42.805,6.029,0.0,-0.01,-0.015,106.0,106.0,103.0,13.4,1505.2,324.6,-0.7,1.8,2470.758,13.29,0.01,180.0
2022-02-18T05:37:03,42.805,6.029,0.023,0.012,0.025,105.0,105.0,102.0,13.4,1505.2,327.5,-0.8,1.8,2470.736,13.28,0.025,62.4
2022-02-18T05:40:03,42.805,6.029,-0.011,0.025,0.041,104.0,105.0,102.0,13.4,1505.2,326.1,-0.8,1.8,2470.759,13.28,0.027,336.3
2022-02-18T05:43:03,42.805,6.029,0.015,0.027,0.034,105.0,107.0,101.0,13.4,1505.2,323.7,-0.7,1.8,2470.783,13.28,0.03,29.1
2022-02-18T05:46:03,42.805,6.029,0.02,0.01,0.019,105.0,106.0,102.0,13.3,1505.2,325.2,-0.8,1.8,2470.782,13.28,0.022,63.4
2022-02-18T05:49:03,42.805,6.029,0.005,0.01,0.024,104.0,105.0,102.0,13.4,1505.2,324.1,-0.7,1.8,2470.764,13.28,0.011,26.6
2022-02-18T05:52:03,42.805,6.029,0.0,0.014,-0.002,105.0,106.0,102.0,13.3,1505.2,326.5,-0.8,1.8,2470.787,13.28,0.014,0.0
2022-02-18T05:55:03,42.805,6.029,0.018,0.009,0.025,106.0,104.0,103.0,13.3,1505.2,326.6,-0.7,1.8,2470.755,13.28,0.02,63.4
2022-02-18T05:58:03,42.805,6.029,0.007,0.001,0.031,106.0,105.0,102.0,13.4,1505.2,328.8,-0.8,1.8,2470.758,13.28,0.007,81.9
2022-02-18T06:04:03,42.805,6.029,0.018,0.015,0.003,105.0,105.0,102.0,13.3,1505.2,327.6,-0.8,1.8,2470.862,13.28,0.023,50.2
2022-02-18T06:07:03,42.805,6.029,0.036,0.032,0.022,105.0,105.0,102.0,13.4,1505.2,325.7,-0.8,1.8,2470.85,13.28,0.048,48.4
2022-02-18T06:10:03,42.805,6.029,0.042,-0.006,0.006,105.0,106.0,103.0,13.4,1505.2,327.9,-0.7,1.8,2470.812,13.28,0.042,98.1
2022-02-18T06:13:03,42.805,6.029,0.033,0.003,-0.001,106.0,105.0,103.0,13.4,1505.2,325.6,-0.7,1.8,2470.811,13.28,0.033,84.8
2022-02-18T06:16:03,42.805,6.029,0.027,0.007,0.035,105.0,105.0,102.0,13.4,1505.2,330.4,-0.7,1.8,2470.809,13.28,0.027,75.5
2022-02-18T06:19:03,42.805,6.029,0.025,-0.004,0.0,106.0,106.0,103.0,13.4,1505.2,327.0,-0.8,1.8,2470.833,13.28,0.025,99.1
2022-02-18T06:22:03,42.805,6.029,0.041,0.023,0.026,107.0,105.0,102.0,13.4,1505.2,324.7,-0.8,1.8,2470.832,13.28,0.047,60.7
2022-02-18T06:25:03,42.805,6.029,0.025,0.004,0.021,105.0,104.0,104.0,13.4,1505.2,326.1,-0.7,1.8,2470.812,13.28,0.025,80.9
2022-02-18T06:28:03,42.805,6.029,0.027,0.033,0.015,105.0,106.0,103.0,13.4,1505.2,325.7,-0.8,1.8,2470.78,13.28,0.042,39.3
2022-02-18T06:31:03,42.805,6.029,0.007,0.007,0.011,106.0,106.0,102.0,13.4,1505.2,330.7,-0.8,1.8,2470.791,13.28,0.009,45.0
2022-02-18T06:34:03,42.805,6.029,0.027,0.005,0.003,105.0,106.0,102.0,13.3,1505.2,325.3,-0.7,1.8,2470.837,13.28,0.027,79.5
2022-02-18T06:37:03,42.805,6.029,0.013,-0.002,-0.003,105.0,105.0,102.0,13.4,1505.2,330.0,-0.8,1.8,2470.813,13.28,0.013,98.7
2022-02-18T06:40:03,42.805,6.029,0.02,0.01,0.044,106.0,106.0,101.0,13.4,1505.2,329.0,-0.8,1.8,2470.807,13.28,0.022,63.4
2022-02-18T06:43:03,42.805,6.029,0.007,0.005,0.016,105.0,106.0,103.0,13.4,1505.2,324.1,-0.8,1.8,2470.788,13.28,0.008,54.5
2022-02-18T06:46:03,42.805,6.029,0.034,0.006,0.009,106.0,105.0,103.0,13.4,1505.2,327.7,-0.8,1.8,2470.827,13.28,0.034,80.0
2022-02-18T06:49:03,42.805,6.029,0.005,0.008,-0.019,105.0,105.0,103.0,13.4,1505.2,329.3,-0.8,1.8,2470.769,13.28,0.009,32.0
2022-02-18T06:52:03,42.805,6.029,0.023,-0.001,-0.009,103.0,105.0,104.0,13.3,1505.2,323.3,-0.7,1.8,2470.829,13.28,0.023,92.5
2022-02-18T06:55:03,42.805,6.029,0.013,0.032,0.0,105.0,106.0,103.0,13.4,1505.2,326.5,-0.8,1.8,2470.8,13.28,0.034,22.1
2022-02-18T06:58:03,42.805,6.029,0.024,0.011,0.011,105.0,106.0,103.0,13.4,1505.2,326.1,-0.7,1.8,2470.808,13.28,0.026,65.4
2022-02-18T07:04:03,42.805,6.029,0.034,0.014,0.006,104.0,105.0,102.0,13.4,1505.2,329.2,-0.8,1.8,2470.84,13.28,0.036,67.6
2022-02-18T07:07:03,42.805,6.029,0.009,0.018,-0.01,105.0,105.0,104.0,13.3,1505.2,328.8,-0.7,1.8,2470.845,13.28,0.02,26.6
2022-02-18T07:10:03,42.805,6.029,0.025,0.004,0.003,105.0,106.0,103.0,13.4,1505.2,329.6,-0.7,1.8,2470.879,13.28,0.025,80.9
2022-02-18T07:13:03,42.805,6.029,0.017,0.0,0.03,107.0,106.0,102.0,13.4,1505.2,325.1,-0.8,1.8,2470.861,13.28,0.017,90.0
2022-02-18T07:16:03,42.805,6.029,0.013,0.013,0.013,105.0,105.0,103.0,13.3,1505.2,323.9,-0.7,1.8,2470.855,13.28,0.018,45.0
2022-02-18T07:19:03,42.805,6.029,0.016,0.025,0.018,105.0,106.0,103.0,13.3,1505.2,325.2,-0.8,1.8,2470.836,13.28,0.029,32.6
2022-02-18T07:22:03,42.805,6.029,0.019,0.017,0.003,106.0,105.0,102.0,13.3,1505.2,324.3,-0.8,1.8,2470.823,13.28,0.025,48.2
2022-02-18T07:25:03,42.805,6.029,0.033,0.017,0.025,106.0,106.0,103.0,13.4,1505.2,330.2,-0.8,1.8,2470.861,13.28,0.037,62.7
2022-02-18T07:28:03,42.805,6.029,0.029,-0.006,0.002,105.0,106.0,103.0,13.4,1505.2,331.3,-0.8,1.8,2470.835,13.28,0.029,101.7
2022-02-18T07:31:03,42.805,6.029,0.018,-0.01,-0.014,105.0,106.0,103.0,13.4,1505.2,324.9,-0.7,1.8,2470.826,13.28,0.02,119.1
2022-02-18T07:34:03,42.805,6.029,0.018,0.013,-0.006,106.0,105.0,103.0,13.4,1505.2,329.6,-0.7,1.9,2470.866,13.28,0.022,54.2
2022-02-18T07:37:03,42.805,6.029,0.006,0.001,0.013,106.0,108.0,104.0,13.3,1505.2,324.2,-0.7,1.8,2470.89,13.28,0.006,80.5
2022-02-18T07:40:03,42.805,6.029,0.017,0.009,-0.003,106.0,105.0,102.0,13.4,1505.2,325.2,-0.7,1.8,2470.865,13.28,0.019,62.1
2022-02-18T07:43:03,42.805,6.029,0.005,-0.002,0.007,105.0,107.0,102.0,13.4,1505.2,326.8,-0.8,1.8,2470.885,13.28,0.005,111.8
2022-02-18T07:46:03,42.805,6.029,0.025,0.009,0.001,105.0,106.0,103.0,13.4,1505.2,327.1,-0.8,1.8,2470.877,13.28,0.026,70.2
2022-02-18T07:49:03,42.805,6.029,0.01,-0.003,-0.002,106.0,106.0,102.0,13.4,1505.2,326.8,-0.8,1.8,2470.884,13.28,0.01,106.7
2022-02-18T07:52:03,42.805,6.029,0.026,0.006,0.003,106.0,106.0,102.0,13.4,1505.2,324.1,-0.7,1.8,2470.843,13.28,0.026,77.0
2022-02-18T07:55:03,42.805,6.029,-0.002,-0.012,0.007,105.0,105.0,103.0,13.4,1505.2,331.0,-0.7,1.8,2470.867,13.28,0.012,189.5
2022-02-18T07:58:03,42.805,6.029,0.037,-0.008,0.008,106.0,106.0,103.0,13.4,1505.2,326.9,-0.8,1.8,2470.86,13.28,0.037,102.2
2022-02-18T08:04:03,42.805,6.029,0.013,-0.001,-0.005,105.0,105.0,104.0,13.3,1505.2,325.6,-0.8,1.8,2470.933,13.28,0.013,94.4
2022-02-18T08:07:03,42.805,6.029,0.024,0.0,0.016,107.0,105.0,102.0,13.4,1505.2,328.8,-0.8,1.8,2470.882,13.28,0.024,90.0
2022-02-18T08:10:03,42.805,6.029,0.02,0.026,0.014,106.0,105.0,103.0,13.4,1505.2,323.4,-0.8,1.8,2470.877,13.28,0.032,37.6
2022-02-18T08:13:03,42.805,6.029,0.01,0.016,-0.033,106.0,106.0,103.0,13.3,1505.2,327.0,-0.7,1.8,2470.872,13.28,0.018,32.0
2022-02-18T08:16:03,42.805,6.029,0.022,-0.005,-0.016,110.0,105.0,103.0,13.3,1505.2,326.2,-0.8,1.8,2470.877,13.28,0.022,102.8
2022-02-18T08:19:03,42.805,6.029,0.012,0.008,0.0,105.0,105.0,103.0,13.4,1505.2,330.8,-0.7,1.8,2470.906,13.28,0.014,56.3
2022-02-18T08:22:03,42.805,6.029,0.001,-0.007,0.007,105.0,106.0,102.0,13.3,1505.2,327.1,-0.8,1.8,2470.918,13.28,0.007,171.9
2022-02-18T08:25:03,42.805,6.029,0.042,0.011,0.018,105.0,105.0,103.0,13.4,1505.2,326.2,-0.7,1.8,2470.904,13.28,0.043,75.3
2022-02-18T08:28:03,42.805,6.029,0.028,-0.01,0.026,106.0,105.0,103.0,13.3,1505.2,328.6,-0.7,1.8,2470.919,13.28,0.029,109.6
2022-02-18T08:31:03,42.805,6.029,0.023,-0.029,-0.006,104.0,105.0,103.0,13.3,1505.2,328.0,-0.7,1.8,2470.959,13.28,0.037,141.6
2022-02-18T08:34:03,42.805,6.029,0.042,-0.023,0.0,105.0,107.0,102.0,13.4,1505.2,327.1,-0.7,1.8,2470.914,13.28,0.047,118.7
2022-02-18T08:37:03,42.805,6.029,0.003,0.002,0.003,106.0,104.0,103.0,13.4,1505.2,324.7,-0.8,1.8,2470.913,13.28,0.003,56.3
2022-02-18T08:40:03,42.805,6.029,0.013,-0.006,-0.021,105.0,104.0,103.0,13.3,1505.2,326.2,-0.8,1.8,2470.897,13.28,0.014,114.8
2022-02-18T08:43:03,42.805,6.029,-0.004,0.003,-0.01,104.0,104.0,102.0,13.4,1505.2,329.3,-0.8,1.8,2470.911,13.28,0.005,306.9
2022-02-18T08:46:03,42.805,6.029,0.028,0.004,0.01,105.0,105.0,102.0,13.4,1505.2,323.1,-0.8,1.8,2470.882,13.28,0.028,81.9
2022-02-18T08:49:03,42.805,6.029,0.022,-0.012,-0.008,106.0,105.0,103.0,13.4,1505.2,326.5,-0.7,1.8,2470.885,13.28,0.025,118.6
2022-02-18T08:52:03,42.805,6.029,0.049,-0.017,-0.014,105.0,105.0,103.0,13.4,1505.2,331.3,-0.7,1.8,2470.862,13.28,0.051,109.1
2022-02-18T08:55:03,42.805,6.029,0.033,-0.024,-0.012,105.0,106.0,103.0,13.4,1505.2,328.6,-0.7,1.8,2470.903,13.28,0.04,126.0
2022-02-18T08:58:03,42.805,6.029,0.014,-0.001,-0.009,105.0,104.0,103.0,13.4,1505.2,327.5,-0.7,1.8,2470.88,13.28,0.014,94.1
2022-02-18T09:04:03,42.805,6.029,0.049,0.001,0.018,105.0,104.0,103.0,13.3,1505.2,330.5,-0.8,1.8,2470.917,13.28,0.049,88.8
2022-02-18T09:07:03,42.805,6.029,0.027,0.005,-0.02,105.0,104.0,103.0,13.4,1505.2,327.3,-0.7,1.8,2470.867,13.28,0.027,79.5
2022-02-18T09:10:03,42.805,6.029,0.015,-0.026,-0.019,105.0,105.0,102.0,13.4,1505.2,329.1,-0.7,1.8,2470.88,13.28,0.03,150.0
2022-02-18T09:13:03,42.805,6.029,0.006,-0.013,-0.014,104.0,104.0,102.0,13.3,1505.2,329.8,-0.8,1.8,2470.882,13.28,0.014,155.2
2022-02-18T09:16:03,42.805,6.029,0.029,0.004,0.017,106.0,105.0,101.0,13.4,1505.2,323.8,-0.8,1.8,2470.905,13.28,0.029,82.2
2022-02-18T09:19:03,42.805,6.029,0.017,0.0,-0.021,105.0,105.0,103.0,13.4,1505.2,325.0,-0.7,1.8,2470.885,13.28,0.017,90.0
2022-02-18T09:22:03,42.805,6.029,0.016,0.019,0.003,104.0,105.0,103.0,13.3,1505.2,326.3,-0.7,1.8,2470.862,13.28,0.024,40.1
2022-02-18T09:25:03,42.805,6.029,0.048,-0.002,0.024,105.0,105.0,102.0,13.4,1505.2,328.0,-0.8,1.8,2470.893,13.28,0.048,92.4
2022-02-18T09:28:03,42.805,6.029,0.035,0.009,-0.002,105.0,105.0,102.0,13.4,1505.2,330.8,-0.8,1.8,2470.881,13.28,0.036,75.6
2022-02-18T09:31:03,42.805,6.029,0.019,-0.009,0.014,106.0,105.0,101.0,13.4,1505.2,325.3,-0.8,1.8,2470.852,13.28,0.021,115.3
2022-02-18T09:34:03,42.805,6.029,0.023,0.007,0.017,105.0,104.0,103.0,13.3,1505.2,327.1,-0.7,1.9,2470.893,13.28,0.024,73.1
2022-02-18T09:37:03,42.805,6.029,0.012,0.002,0.003,105.0,104.0,102.0,13.4,1505.2,324.8,-0.8,1.8,2470.858,13.28,0.012,80.5
2022-02-18T09:40:03,42.805,6.029,0.036,-0.007,0.026,105.0,104.0,102.0,13.4,1505.2,325.8,-0.7,1.8,2470.863,13.28,0.036,101.0
2022-02-18T09:43:03,42.805,6.029,0.019,0.01,0.017,105.0,104.0,102.0,13.3,1505.2,326.2,-0.8,1.8,2470.879,13.28,0.021,62.2
2022-02-18T09:46:03,42.805,6.029,0.022,0.004,0.01,104.0,105.0,103.0,13.4,1505.2,325.1,-0.8,1.8,2470.87,13.28,0.022,79.7
2022-02-18T09:49:03,42.805,6.029,0.018,0.005,0.008,105.0,104.0,102.0,13.4,1505.2,323.2,-0.8,1.8,2470.877,13.28,0.018,74.5
2022-02-18T09:52:03,42.805,6.029,0.029,-0.007,-0.025,104.0,104.0,102.0,13.4,1505.2,326.8,-0.7,1.8,2470.901,13.28,0.029,103.6
2022-02-18T09:55:03,42.805,6.029,0.021,0.01,-0.02,104.0,105.0,101.0,13.3,1505.2,326.6,-0.8,1.8,2470.886,13.28,0.023,64.5
2022-02-18T09:58:03,42.805,6.029,0.004,-0.002,-0.002,105.0,104.0,102.0,13.4,1505.2,329.1,-0.7,1.8,2470.894,13.28,0.004,116.6
2022-02-18T10:04:03,42.805,6.029,0.018,0.016,-0.027,104.0,104.0,103.0,13.4,1505.2,323.8,-0.8,1.8,2470.899,13.28,0.024,48.4